sat.trackr.live / text

‹ back to catalog

STARLINK-37409

NORAD 68819 · 2026-089T

PAYLOAD ACTIVE UNKNOWN

§ Identity

Operator
Country
US
Launch date
2026-04-23
Launch site
AFWTR
Launch vehicle
Mass (kg)
RCS (m²)

Purposes: comms

External: N2YO · Heavens-Above · Gunter

§ Orbital elements

Epoch: 2026-05-25T02:34:32.580192Z

Period
91.42 min
Inclination
97.2852°
Eccentricity
0.0002259
Mean motion
15.75178516 rev/d
Perigee alt
342.6 km
Apogee alt
345.6 km
Semi-major
6,722.3 km
B*
1.6760e-3
RAAN
351.7714°
Arg perigee
69.3760°
Mean anomaly
290.7747°
Rev number
506

§ Raw data

STARLINK-374091 68819U 26089T   26145.10732153  .00257420  00000+0  16760-2 0  99982 68819  97.2852 351.7714 0002259  69.3760 290.7747 15.75178516  5067

JSON: /api/v1/satellites/68819 · /tle

For live sub-satellite position, see the globe view (requires WebGL).

§ Visibility from observer

Set your observer location to see the next 7 days of passes ≥ 10°. The values pass through the URL so the page stays shareable.

No JS? Fill the form by hand. The geolocation button needs JavaScript.